Stations météo

Publicité
Rostherne No 2, Grande-Bretagne (3351): Température de l'air & dewpoint: 14.08.2019 12:00:00 - 20.08.2019 12:00:00 (BST)Rostherne No 2, Grande-Bretagne (3351): Vitesse du vent & gusts: 14.08.2019 12:00:00 - 20.08.2019 12:00:00 (BST)Rostherne No 2, Grande-Bretagne (3351): Direction du vent: 14.08.2019 12:00:00 - 20.08.2019 12:00:00 (BST)Rostherne No 2, Grande-Bretagne (3351): reduced air pressure: 14.08.2019 12:00:00 - 20.08.2019 12:00:00 (BST)Rostherne No 2, Grande-Bretagne (3351): visibility: 14.08.2019 12:00:00 - 20.08.2019 12:00:00 (BST)Rostherne No 2, Grande-Bretagne (3351): Ensoleillement: 14.08.2019 12:00:00 - 20.08.2019 12:00:00 (BST)Rostherne No 2, Grande-Bretagne (3351): Quantités de précipitations: 14.08.2019 12:00:00 - 20.08.2019 12:00:00 (BST)
Date & Time tt [°C] td [°C] ff [km/h] ff [knt] fx [km/h] fx [knt] dd ppp [hPa] vv [km] sd [min] rr [mm]
20.08.2019 12:00:00 16,2 11,0 18 10 - - W 1021,7 30 12 0,0
20.08.2019 11:00:00 15,5 12,5 16 9 - - W 1021,3 21 6 0,0
20.08.2019 10:00:00 14,1 11,4 21 11 - - W 1020,7 16 24 0,0
20.08.2019 09:00:00 14,0 13,2 13 7 - - W 1019,9 17 24 0,0
20.08.2019 08:00:00 11,9 11,4 13 7 - - WSW 1019,5 6 0 1,2
20.08.2019 07:00:00 11,9 11,4 13 7 - - WSW 1018,8 7 0 4,0
20.08.2019 06:00:00 11,8 11,2 9 5 - - WSW 1018,0 5 0 1,6
20.08.2019 05:00:00 11,7 10,9 15 8 - - W 1017,6 29 0 1,2
20.08.2019 04:00:00 11,7 10,3 15 8 - - WSW 1017,2 17 0 0,2
20.08.2019 03:00:00 11,4 9,8 8 4 - - SSW 1016,9 35 0 0,0
20.08.2019 02:00:00 11,4 9,7 8 4 - - SSW 1016,6 30 0 0,0
20.08.2019 01:00:00 12,3 10,1 8 4 - - SW 1016,6 40 - 0,0
20.08.2019 00:00:00 11,9 10,2 8 4 - - SSW 1016,3 30 0 0,0
19.08.2019 23:00:00 12,4 10,2 9 5 - - SW 1015,9 29 0 0,0
19.08.2019 22:00:00 13,0 10,3 8 4 - - SSW 1015,3 30 0 0,0
19.08.2019 21:00:00 13,8 10,2 8 4 - - SW 1014,9 30 0 0,0
19.08.2019 20:00:00 14,9 10,0 16 9 - - WSW 1014,3 40 48 0,0
19.08.2019 19:00:00 14,5 12,1 15 8 - - WNW 1013,8 30 6 0,8
19.08.2019 18:00:00 16,9 9,0 15 8 - - WSW 1013,2 40 18 0,0
19.08.2019 17:00:00 18,7 10,0 22 12 - - W 1013,0 22 30 0,0
19.08.2019 16:00:00 18,2 10,1 26 14 - - WNW 1012,8 45 42 0,0
19.08.2019 15:00:00 16,4 11,4 21 11 - - W 1012,5 30 18 0,0
19.08.2019 14:00:00 15,5 13,4 15 8 - - W 1012,4 10 12 0,2
19.08.2019 13:00:00 14,4 12,8 21 11 - - WNW 1011,9 10 0 1,8
19.08.2019 12:00:00 17,1 9,5 15 8 - - WSW 1010,9 25 24 0,0
19.08.2019 11:00:00 17,8 11,0 18 10 - - W 1010,8 20 42 0,0
19.08.2019 10:00:00 16,8 11,5 18 10 - - W 1010,3 23 60 0,0
19.08.2019 09:00:00 15,4 12,3 18 10 - - W 1009,9 16 60 0,0
19.08.2019 08:00:00 14,1 12,2 9 5 - - WSW 1009,3 19 36 0,0
19.08.2019 07:00:00 12,7 11,5 8 4 - - SW 1008,9 15 0 0,0
19.08.2019 06:00:00 13,4 11,9 11 6 - - WSW 1007,9 26 0 0,0
19.08.2019 05:00:00 12,9 11,8 8 4 - - SW 1007,1 20 0 0,0
19.08.2019 04:00:00 13,0 11,9 9 5 - - SW 1006,7 17 0 0,0
19.08.2019 03:00:00 13,0 11,8 8 4 - - SSW 1006,4 16 0 0,0
19.08.2019 02:00:00 13,2 12,0 9 5 - - SSW 1006,1 15 0 0,0
19.08.2019 01:00:00 13,2 11,8 11 6 - - SSW 1005,8 15 - 0,0
19.08.2019 00:00:00 13,3 11,8 9 5 - - SSW 1005,4 18 0 0,0
18.08.2019 23:00:00 13,5 11,4 9 5 - - SSW 1004,8 24 0 0,0
18.08.2019 22:00:00 14,2 11,6 9 5 - - SW 1004,4 26 0 0,0
18.08.2019 21:00:00 15,3 11,2 18 10 - - SW 1003,5 22 0 0,0
18.08.2019 20:00:00 16,0 10,2 15 8 - - SW 1003,1 25 0 0,0
18.08.2019 19:00:00 16,5 9,8 22 12 - - WSW 1003,0 25 0 0,0
18.08.2019 18:00:00 16,9 9,6 18 10 48 26 WSW 1002,6 20 0 0,0
18.08.2019 17:00:00 17,7 8,7 26 14 48 26 WSW 1002,1 25 12 0,0
18.08.2019 16:00:00 18,7 8,1 21 11 - - WSW 1001,9 35 18 0,0
18.08.2019 15:00:00 17,8 8,3 28 15 48 26 WSW 1001,7 29 30 0,0
18.08.2019 14:00:00 19,2 9,1 24 13 48 26 WSW 1001,2 26 54 0,0
18.08.2019 13:00:00 18,8 9,1 24 13 - - WSW 1000,8 29 30 0,0
18.08.2019 12:00:00 17,5 9,6 18 10 - - WSW 1000,5 25 30 0,0
18.08.2019 11:00:00 17,7 12,0 16 9 - - SW 1000,3 22 54 0,0
18.08.2019 10:00:00 16,2 12,1 11 6 - - SW 1000,3 28 42 0,0
18.08.2019 09:00:00 14,7 11,2 15 8 - - SSW 1000,0 30 42 0,0
18.08.2019 08:00:00 13,8 10,9 13 7 - - SSW 999,7 22 48 0,0
18.08.2019 07:00:00 12,5 10,6 9 5 - - SW 999,8 23 6 0,0
18.08.2019 06:00:00 12,6 10,7 9 5 - - SW 999,9 21 0 0,0
18.08.2019 05:00:00 12,1 10,3 8 4 - - S 1000,1 25 0 0,0
18.08.2019 04:00:00 12,7 10,7 13 7 - - SSW 1000,3 19 0 0,0
18.08.2019 03:00:00 12,5 10,3 11 6 - - SSW 1000,4 19 0 0,0
18.08.2019 02:00:00 12,9 10,1 11 6 - - SSW 1000,7 22 0 0,0
18.08.2019 01:00:00 12,9 10,2 8 4 - - S 1001,3 25 - 0,0
18.08.2019 00:00:00 13,5 9,9 11 6 - - S 1001,8 23 0 0,0
17.08.2019 23:00:00 13,8 9,5 9 5 - - SSW 1001,8 25 0 0,0
17.08.2019 22:00:00 13,7 8,7 4 2 - - S 1001,8 40 0 0,0
17.08.2019 21:00:00 15,1 8,5 11 6 - - SW 1001,8 30 6 0,0
17.08.2019 20:00:00 16,8 8,4 13 7 - - SW 1001,7 35 48 0,0
17.08.2019 19:00:00 17,5 9,3 16 9 - - SW 1001,5 40 18 0,0
17.08.2019 18:00:00 18,7 9,1 18 10 - - WSW 1001,6 35 30 0,0
17.08.2019 17:00:00 19,4 9,6 24 13 - - WSW 1001,8 23 36 0,0
17.08.2019 16:00:00 19,1 9,3 18 10 - - WSW 1001,7 28 42 0,0
17.08.2019 15:00:00 18,0 8,1 22 12 - - WSW 1002,0 26 48 0,0
17.08.2019 14:00:00 18,9 9,1 24 13 - - W 1001,7 28 42 0,0
17.08.2019 13:00:00 18,5 10,1 24 13 - - WSW 1001,6 28 30 0,0
17.08.2019 12:00:00 18,0 12,2 15 8 - - W 1001,5 30 30 0,0
17.08.2019 11:00:00 16,1 11,7 16 9 - - WNW 1001,3 11 42 0,2
17.08.2019 10:00:00 16,9 13,6 16 9 - - W 1000,6 30 30 0,0
17.08.2019 09:00:00 14,9 13,9 15 8 - - W 1000,4 17 12 1,2
17.08.2019 08:00:00 14,6 13,3 9 5 - - SW 999,9 16 0 0,0
17.08.2019 07:00:00 14,4 12,9 11 6 - - SSW 999,2 18 0 0,0
17.08.2019 06:00:00 13,6 12,2 8 4 - - S 998,9 17 0 0,0
17.08.2019 05:00:00 14,5 12,6 11 6 - - SSW 998,9 16 0 0,0
17.08.2019 04:00:00 14,6 12,8 13 7 - - SSW 999,1 17 0 0,0
17.08.2019 03:00:00 14,0 12,5 9 5 - - SSW 999,0 16 0 0,0
17.08.2019 02:00:00 14,0 12,5 13 7 - - SSW 998,8 19 0 0,0
17.08.2019 01:00:00 14,4 12,3 15 8 - - SSW 998,6 25 - 0,0
17.08.2019 00:00:00 15,7 13,9 11 6 - - SSW 998,5 35 0 0,0
16.08.2019 23:00:00 16,3 15,6 8 4 - - S 998,4 50 0 0,0
16.08.2019 22:00:00 16,9 16,2 13 7 - - S 998,9 50 0 0,0
16.08.2019 21:00:00 16,8 16,1 11 6 - - SSW 998,8 50 0 0,0
16.08.2019 20:00:00 16,7 16,1 16 9 - - S 998,6 50 0 0,0
16.08.2019 19:00:00 16,5 15,9 18 10 - - S 999,3 35 0 1,0
16.08.2019 18:00:00 16,1 15,6 28 15 46 25 S 999,6 8 0 2,2
16.08.2019 17:00:00 16,3 15,6 26 14 46 25 S 1000,7 22 0 0,6
16.08.2019 16:00:00 16,3 15,5 24 13 - - S 1001,8 30 0 1,8
16.08.2019 15:00:00 15,6 14,7 26 14 - - S 1003,0 10 0 2,2
16.08.2019 14:00:00 15,5 14,3 28 15 - - S 1003,4 15 0 1,0
16.08.2019 13:00:00 15,2 14,4 21 11 - - S 1004,5 10 0 2,4
16.08.2019 12:00:00 15,2 14,2 21 11 - - S 1005,5 11 0 1,2
16.08.2019 11:00:00 15,1 13,9 21 11 - - S 1006,2 23 0 0,8
16.08.2019 10:00:00 14,5 13,6 18 10 - - S 1007,3 10 0 1,6
16.08.2019 09:00:00 14,4 13,4 21 11 - - S 1008,2 11 0 2,6
16.08.2019 08:00:00 14,4 13,1 21 11 - - S 1009,3 10 0 0,2
16.08.2019 07:00:00 14,5 12,4 15 8 - - S 1010,0 30 0 0,0
16.08.2019 06:00:00 13,9 12,2 16 9 - - S 1010,9 35 0 0,0
16.08.2019 05:00:00 13,6 11,9 13 7 - - S 1011,7 35 0 0,0
16.08.2019 04:00:00 14,1 11,9 11 6 - - S 1012,7 35 0 0,0
16.08.2019 03:00:00 14,3 11,9 15 8 - - S 1013,0 50 0 0,0
16.08.2019 02:00:00 13,9 11,9 11 6 - - S 1013,6 40 0 0,0
16.08.2019 01:00:00 13,2 11,8 9 5 - - SSE 1014,0 29 - 0,0
16.08.2019 00:00:00 12,7 11,4 9 5 - - SSE 1014,8 30 0 0,0
15.08.2019 23:00:00 10,9 10,0 9 5 - - SE 1015,5 40 0 0,0
15.08.2019 22:00:00 10,5 8,7 8 4 - - SSE 1015,3 35 0 0,0
15.08.2019 21:00:00 12,6 9,1 11 6 - - W 1014,9 40 12 0,0
15.08.2019 20:00:00 15,7 9,0 5 3 - - WNW 1014,8 40 60 0,0
15.08.2019 19:00:00 16,8 8,5 18 10 - - WNW 1014,9 35 60 0,0
15.08.2019 18:00:00 17,6 8,3 16 9 - - WNW 1014,7 40 48 0,0
15.08.2019 17:00:00 17,4 9,5 28 15 - - WNW 1014,2 28 12 0,0
15.08.2019 16:00:00 17,2 10,6 26 14 - - WNW 1013,4 35 6 0,0
15.08.2019 15:00:00 17,3 10,2 28 15 46 25 WNW 1013,0 30 18 0,0
15.08.2019 14:00:00 17,9 10,5 29 16 48 26 WNW 1012,3 30 30 0,0
15.08.2019 13:00:00 16,4 10,1 28 15 52 28 WNW 1011,7 45 30 0,0
15.08.2019 12:00:00 15,8 10,9 29 16 48 26 WNW 1011,1 26 18 0,2
15.08.2019 11:00:00 15,0 11,9 28 15 48 26 WNW 1010,1 7 6 0,0
15.08.2019 10:00:00 15,5 12,1 26 14 - - WNW 1009,2 27 12 0,0
15.08.2019 09:00:00 14,9 13,8 22 12 52 28 WNW 1008,2 26 0 0,4
15.08.2019 08:00:00 14,3 13,6 22 12 - - W 1007,2 4,2 0 0,6
15.08.2019 07:00:00 14,4 13,4 21 11 - - W 1006,6 19 0 0,2
15.08.2019 06:00:00 14,5 13,4 22 12 - - W 1005,7 30 0 0,8
15.08.2019 05:00:00 15,4 13,2 16 9 - - W 1005,2 17 0 0,0
15.08.2019 04:00:00 15,4 13,2 16 9 - - WSW 1005,0 35 0 0,0
15.08.2019 03:00:00 15,4 13,2 11 6 - - SW 1005,0 35 0 0,0
15.08.2019 02:00:00 15,3 13,3 15 8 - - W 1005,3 30 0 0,0
15.08.2019 01:00:00 15,5 14,1 11 6 - - W 1005,3 27 - 0,0
15.08.2019 00:00:00 15,8 14,7 16 9 - - W 1005,2 35 0 0,0
14.08.2019 23:00:00 16,4 15,5 16 9 - - W 1004,5 35 0 0,4
14.08.2019 22:00:00 17,0 16,1 11 6 - - SSW 1004,0 24 0 0,2
14.08.2019 21:00:00 17,5 16,2 5 3 - - SW 1004,1 45 0 0,0
14.08.2019 20:00:00 17,8 16,5 9 5 - - WSW 1004,1 50 0 0,0
14.08.2019 19:00:00 17,9 17,0 8 4 - - SSW 1004,0 13 0 0,0
14.08.2019 18:00:00 17,7 16,6 9 5 - - S 1004,3 45 0 0,0
14.08.2019 17:00:00 17,3 16,7 11 6 - - S 1004,8 30 0 0,0
14.08.2019 16:00:00 15,5 14,8 11 6 - - SE 1005,7 6 0 1,6
14.08.2019 15:00:00 15,9 14,7 18 10 - - SSE 1006,1 8 0 0,2
14.08.2019 14:00:00 15,9 14,5 16 9 - - S 1007,0 30 0 0,0
14.08.2019 13:00:00 15,8 14,7 16 9 - - SSE 1007,5 35 0 0,4
14.08.2019 12:00:00 15,2 14,0 18 10 - - S 1008,1 21 0 0,2

tt = Température de l'air
td = dewpoint
ff = Vitesse du vent
fx = gusts
dd = Direction du vent
ppp = reduced air pressure
vv = visibility
sd = Ensoleillement
rr = Quantités de précipitations

stations d'obs. à proximité